TimeEDT,TemperatureF,Dew PointF,Humidity,Sea Level PressureIn,VisibilityMPH,Wind Direction,Wind SpeedMPH,Gust SpeedMPH,PrecipitationIn,Events,Conditions,WindDirDegrees,DateUTC
12:15 AM,32.9,23.4,68,29.95,10.0,East,10.4,17.3,N/A,,Clear,90,2013-03-24 04:15:00
12:35 AM,32.4,23.4,69,29.95,7.0,East,9.2,-,N/A,,Clear,80,2013-03-24 04:35:00
12:55 AM,32.0,23.4,70,29.95,10.0,ENE,9.2,-,N/A,,Clear,70,2013-03-24 04:55:00
1:15 AM,31.8,23.4,71,29.94,10.0,ENE,8.1,-,N/A,,Clear,70,2013-03-24 05:15:00
1:35 AM,31.6,23.5,72,29.93,10.0,ENE,10.4,-,N/A,,Clear,60,2013-03-24 05:35:00
1:55 AM,31.6,23.9,73,29.93,10.0,East,10.4,-,N/A,,Clear,80,2013-03-24 05:55:00
2:15 AM,31.5,23.9,74,29.93,7.0,East,10.4,-,N/A,,Clear,80,2013-03-24 06:15:00
2:35 AM,31.5,23.9,74,29.93,10.0,ENE,10.4,-,N/A,,Clear,70,2013-03-24 06:35:00
2:55 AM,31.1,23.7,74,29.93,7.0,ENE,10.4,-,N/A,,Clear,70,2013-03-24 06:55:00
3:35 AM,30.9,23.4,74,29.93,7.0,ENE,10.4,-,N/A,,Clear,60,2013-03-24 07:35:00
3:55 AM,30.6,23.4,75,29.92,4.0,ENE,12.7,-,N/A,,Haze,60,2013-03-24 07:55:00
4:15 AM,30.4,23.4,75,29.91,3.0,ENE,13.8,-,N/A,Snow,Light Snow,70,2013-03-24 08:15:00
4:35 AM,30.2,23.0,75,29.90,7.0,ENE,12.7,-,N/A,,Clear,70,2013-03-24 08:35:00
4:55 AM,30.2,23.0,75,29.90,10.0,ENE,13.8,-,N/A,,Clear,70,2013-03-24 08:55:00
5:15 AM,30.2,23.0,75,29.89,4.0,ENE,13.8,-,N/A,Snow,Light Snow,70,2013-03-24 09:15:00
5:35 AM,30.0,23.0,75,29.89,5.0,East,10.4,-,N/A,,Haze,80,2013-03-24 09:35:00
5:55 AM,30.0,23.0,75,29.88,3.0,ENE,12.7,-,N/A,Snow,Light Snow,70,2013-03-24 09:55:00
6:15 AM,29.8,22.8,75,29.86,5.0,East,11.5,-,N/A,Snow,Light Snow,80,2013-03-24 10:15:00
6:35 AM,29.8,22.8,75,29.87,3.0,ENE,11.5,-,N/A,Snow,Light Snow,70,2013-03-24 10:35:00
6:55 AM,29.8,22.8,75,29.86,4.0,ENE,13.8,-,N/A,Snow,Light Snow,70,2013-03-24 10:55:00
7:15 AM,29.8,22.8,75,29.84,3.0,ENE,13.8,-,N/A,Snow,Light Snow,70,2013-03-24 11:15:00
7:35 AM,29.8,23.0,76,29.84,5.0,ENE,11.5,-,N/A,Snow,Light Snow,70,2013-03-24 11:35:00
7:55 AM,29.8,23.0,76,29.84,2.5,ENE,12.7,-,N/A,Snow,Light Snow,70,2013-03-24 11:55:00
8:15 AM,29.8,23.0,76,29.84,1.8,ENE,10.4,-,N/A,Snow,Light Snow,60,2013-03-24 12:15:00
8:35 AM,29.8,23.0,76,29.84,2.5,ENE,9.2,-,N/A,Snow,Light Snow,60,2013-03-24 12:35:00
8:55 AM,30.0,23.2,76,29.82,1.8,ENE,11.5,-,N/A,Snow,Light Snow,60,2013-03-24 12:55:00
9:15 AM,29.3,24.3,81,29.82,0.5,ENE,11.5,-,N/A,Snow,Snow,60,2013-03-24 13:15:00
9:35 AM,28.8,25.5,88,29.81,0.5,ENE,11.5,-,N/A,Snow,Light Snow,70,2013-03-24 13:35:00
9:55 AM,28.8,25.9,89,29.78,1.0,ENE,17.3,-,N/A,Snow,Light Snow,60,2013-03-24 13:55:00
10:15 AM,29.1,25.9,88,29.77,2.5,ENE,16.1,-,N/A,Snow,Light Snow,70,2013-03-24 14:15:00
10:35 AM,29.3,25.7,86,29.77,7.0,ENE,15.0,21.9,N/A,,Overcast,60,2013-03-24 14:35:00
10:55 AM,29.3,25.5,86,29.77,7.0,ENE,16.1,24.2,N/A,,Overcast,60,2013-03-24 14:55:00
11:15 AM,29.8,25.7,85,29.74,10.0,ENE,17.3,23.0,N/A,,Overcast,70,2013-03-24 15:15:00
11:35 AM,30.6,25.7,82,29.73,7.0,ENE,17.3,23.0,N/A,,Overcast,70,2013-03-24 15:35:00
11:55 AM,31.3,25.0,77,29.72,7.0,East,16.1,21.9,N/A,,Overcast,80,2013-03-24 15:55:00
12:15 PM,31.6,24.1,74,29.71,2.5,East,17.3,24.2,N/A,Snow,Light Snow,80,2013-03-24 16:15:00
12:35 PM,32.0,24.3,73,29.72,3.0,ENE,15.0,24.2,N/A,,Haze,70,2013-03-24 16:35:00
12:55 PM,32.0,24.3,73,29.71,2.5,East,16.1,-,N/A,Snow,Light Snow,80,2013-03-24 16:55:00
1:15 PM,32.0,24.4,74,29.70,4.0,East,15.0,-,N/A,Snow,Light Snow,80,2013-03-24 17:15:00
1:35 PM,32.2,24.8,74,29.69,2.5,ENE,18.4,-,N/A,Snow,Light Snow,70,2013-03-24 17:35:00
1:55 PM,32.2,24.8,74,29.68,1.0,East,13.8,21.9,N/A,Snow,Light Snow,80,2013-03-24 17:55:00
2:15 PM,32.2,25.5,76,29.65,2.0,ENE,19.6,23.0,N/A,Snow,Light Snow,70,2013-03-24 18:15:00
2:35 PM,32.2,26.2,79,29.63,1.5,ENE,17.3,29.9,N/A,Snow,Light Snow,70,2013-03-24 18:35:00
2:55 PM,32.5,25.9,76,29.60,2.5,ENE,18.4,32.2,N/A,Snow,Light Snow,70,2013-03-24 18:55:00
3:15 PM,33.1,25.5,74,29.56,3.0,East,27.6,33.4,N/A,,Haze,80,2013-03-24 19:15:00
3:35 PM,33.8,25.5,72,29.54,3.0,ENE,27.6,35.7,N/A,,Haze,70,2013-03-24 19:35:00
3:55 PM,33.8,25.3,71,29.56,10.0,ENE,24.2,31.1,N/A,,Overcast,60,2013-03-24 19:55:00
4:15 PM,33.8,25.3,71,29.54,10.0,ENE,21.9,32.2,N/A,,Overcast,70,2013-03-24 20:15:00
4:35 PM,34.2,24.4,68,29.52,10.0,ENE,28.8,34.5,N/A,,Overcast,70,2013-03-24 20:35:00
4:55 PM,34.0,23.4,65,29.52,4.0,ENE,23.0,32.2,N/A,,Haze,70,2013-03-24 20:55:00
5:15 PM,33.6,23.0,65,29.52,2.5,ENE,21.9,29.9,N/A,Snow,Light Snow,70,2013-03-24 21:15:00
5:35 PM,33.4,22.6,65,29.50,3.0,East,29.9,41.4,N/A,Snow,Light Snow,80,2013-03-24 21:35:00
5:55 PM,33.4,22.8,65,29.49,2.5,ENE,28.8,35.7,N/A,Snow,Light Snow,70,2013-03-24 21:55:00
6:15 PM,33.1,22.3,65,29.49,2.5,ENE,28.8,36.8,N/A,Snow,Light Snow,70,2013-03-24 22:15:00
6:35 PM,32.4,22.5,67,29.50,2.0,ENE,28.8,36.8,N/A,Snow,Light Snow,70,2013-03-24 22:35:00
6:55 PM,31.8,23.4,71,29.52,5.0,ENE,21.9,34.5,N/A,Snow,Light Snow,70,2013-03-24 22:55:00
7:15 PM,31.5,23.9,74,29.52,7.0,ENE,24.2,29.9,N/A,,Overcast,70,2013-03-24 23:15:00
7:35 PM,31.1,23.4,73,29.51,3.0,ENE,25.3,33.4,N/A,Snow,Light Snow,70,2013-03-24 23:35:00
8:15 PM,29.3,24.8,83,29.51,1.5,ENE,23.0,32.2,N/A,Snow,Light Snow,60,2013-03-25 00:15:00
8:35 PM,28.6,25.5,88,29.50,1.2,NE,23.0,33.4,N/A,Snow,Light Snow,50,2013-03-25 00:35:00
8:55 PM,28.4,26.1,91,29.51,0.8,ENE,17.3,26.5,0.01,Snow,Light Snow,60,2013-03-25 00:55:00
9:15 PM,28.4,26.4,92,29.51,0.8,ENE,24.2,29.9,0.01,Snow,Snow,60,2013-03-25 01:15:00
9:35 PM,28.6,26.8,93,29.51,1.0,ENE,21.9,31.1,0.02,Snow,Light Snow,60,2013-03-25 01:35:00
9:55 PM,28.8,27.0,93,29.52,1.2,NE,17.3,32.2,0.02,Snow,Light Snow,50,2013-03-25 01:55:00
10:15 PM,28.8,27.0,93,29.52,1.0,ENE,21.9,39.1,N/A,Snow,Light Snow,60,2013-03-25 02:15:00
10:35 PM,28.6,26.8,93,29.52,0.8,NE,21.9,25.3,0.01,Snow,Light Snow,50,2013-03-25 02:35:00
10:55 PM,28.8,27.0,93,29.53,1.0,NE,18.4,24.2,0.01,Snow,Light Snow,50,2013-03-25 02:55:00
11:15 PM,28.8,27.0,93,29.53,1.5,NE,10.4,-,N/A,Snow,Light Snow,50,2013-03-25 03:15:00
11:35 PM,28.8,27.1,94,29.53,1.0,NE,15.0,19.6,0.01,Snow,Light Snow,50,2013-03-25 03:35:00
11:55 PM,28.8,27.1,94,29.52,1.0,NE,10.4,-,0.02,Snow,Light Snow,40,2013-03-25 03:55:00